"Sample Date","Sample Time","Sample Value","Units","Flow Rate","Sample Interval","Number Channels","Micron Size 0","Counts/Channel 0","Micron Size 1","Counts/Channel 1","Micron Size 2","Counts/Channel 2","Micron Size 3","Counts/Channel 3","Micron Size 4","Counts/Channel 4","Micron Size 5","Counts/Channel 5","Micron Size 6","Counts/Channel 6","Micron Size 7","Counts/Channel 7","Micron Size 8","Counts/Channel 8","Micron Size 9","Counts/Channel 9","Micron Size 10","Counts/Channel 10","Micron Size 11","Counts/Channel 11","Micron Size 12","Counts/Channel 12","Micron Size 13","Counts/Channel 13","Micron Size 14","Counts/Channel 14","Micron Size 15","Counts/Channel 15","Micron Size 16","Counts/Channel 16","Micron Size 17","Counts/Channel 17","Micron Size 18","Counts/Channel 18","Micron Size 19","Counts/Channel 19","Micron Size 20","Counts/Channel 20","Micron Size 21","Counts/Channel 21","Micron Size 22","Counts/Channel 22","Micron Size 23","Counts/Channel 23","Micron Size 24","Counts/Channel 24","Micron Size 25","Counts/Channel 25","Micron Size 26","Counts/Channel 26","Micron Size 27","Counts/Channel 27","Micron Size 28","Counts/Channel 28","Micron Size 29","Counts/Channel 29","Micron Size 30","Counts/Channel 30","Micron Size 31","Counts/Channel 31"
"03/05/08","23:00:05",32414.000,"cc",28307.156,6.00,6,0.100,25252.000,0.200,4640.000,0.300,1352.000,0.500,969.000,1.000,201.000,5.000,0
"03/05/08","23:00:11",28737.000,"cc",28306.412,6.00,6,0.100,23392.000,0.200,3909.000,0.300,714.000,0.500,570.000,1.000,152.000,5.000,0
"03/05/08","23:00:17",29129.000,"cc",28288.309,6.00,6,0.100,23536.000,0.200,3944.000,0.300,842.000,0.500,652.000,1.000,155.000,5.000,0
"03/05/08","23:00:23",37332.000,"cc",28312.768,6.00,6,0.100,27461.000,0.200,5849.000,0.300,2116.000,0.500,1543.000,1.000,363.000,5.000,0
"03/05/08","23:00:29",40759.000,"cc",28356.022,6.00,6,0.100,29273.000,0.200,6704.000,0.300,2526.000,0.500,1824.000,1.000,432.000,5.000,0
"03/05/08","23:00:35",28320.000,"cc",28344.322,6.00,6,0.100,23182.000,0.200,3745.000,0.300,715.000,0.500,556.000,1.000,122.000,5.000,0
"03/05/08","23:00:41",35305.000,"cc",28327.875,6.00,6,0.100,26346.000,0.200,5413.000,0.300,1851.000,0.500,1364.000,1.000,331.000,5.000,0
"03/05/08","23:00:47",29658.000,"cc",28333.893,6.00,6,0.100,23823.000,0.200,4029.000,0.300,872.000,0.500,760.000,1.000,174.000,5.000,0
"03/05/08","23:00:53",29582.000,"cc",28368.932,6.00,6,0.100,23466.000,0.200,4099.000,0.300,960.000,0.500,858.000,1.000,199.000,5.000,0
"03/05/08","23:00:59",26559.000,"cc",28302.256,6.00,6,0.100,21941.000,0.200,3413.000,0.300,567.000,0.500,493.000,1.000,145.000,5.000,0
"03/05/08","23:01:05",26227.000,"cc",28261.063,6.00,6,0.100,21676.000,0.200,3404.000,0.300,540.000,0.500,481.000,1.000,126.000,5.000,0
"03/05/08","23:01:11",28369.000,"cc",28311.996,6.00,6,0.100,22866.000,0.200,3808.000,0.300,807.000,0.500,739.000,1.000,149.000,5.000,0
"03/05/08","23:01:17",26565.000,"cc",28336.049,6.00,6,0.100,21906.000,0.200,3417.000,0.300,594.000,0.500,514.000,1.000,134.000,5.000,0
"03/05/08","23:01:23",26597.000,"cc",28303.676,6.00,6,0.100,22043.000,0.200,3360.000,0.300,567.000,0.500,489.000,1.000,138.000,5.000,0
"03/05/08","23:01:29",27118.000,"cc",28306.465,6.00,6,0.100,22229.000,0.200,3561.000,0.300,615.000,0.500,562.000,1.000,151.000,5.000,0
"03/05/08","23:01:35",27022.000,"cc",28261.949,6.00,6,0.100,22321.000,0.200,3491.000,0.300,555.000,0.500,517.000,1.000,138.000,5.000,0
"03/05/08","23:01:41",27116.000,"cc",28283.356,6.00,6,0.100,22208.000,0.200,3563.000,0.300,609.000,0.500,584.000,1.000,152.000,5.000,0
"03/05/08","23:01:47",27183.000,"cc",28341.004,6.00,6,0.100,22471.000,0.200,3457.000,0.300,602.000,0.500,544.000,1.000,109.000,5.000,0
"03/05/08","23:01:53",29330.000,"cc",28352.641,6.00,6,0.100,23410.000,0.200,3973.000,0.300,1002.000,0.500,776.000,1.000,169.000,5.000,0
"03/05/08","23:01:59",34359.000,"cc",28322.369,6.00,6,0.100,25980.000,0.200,5078.000,0.300,1645.000,0.500,1334.000,1.000,322.000,5.000,0
"03/05/08","23:02:05",36846.000,"cc",28310.961,6.00,6,0.100,27329.000,0.200,5623.000,0.300,1987.000,0.500,1557.000,1.000,350.000,5.000,0
"03/05/08","23:02:11",31081.000,"cc",28313.291,6.00,6,0.100,24309.000,0.200,4336.000,0.300,1175.000,0.500,1024.000,1.000,237.000,5.000,0
"03/05/08","23:02:17",30097.000,"cc",28329.404,6.00,6,0.100,23992.000,0.200,4133.000,0.300,939.000,0.500,835.000,1.000,198.000,5.000,0
"03/05/08","23:02:23",27897.000,"cc",28315.477,6.00,6,0.100,22789.000,0.200,3574.000,0.300,709.000,0.500,647.000,1.000,178.000,5.000,0
"03/05/08","23:02:29",28481.000,"cc",28264.668,6.00,6,0.100,23053.000,0.200,3946.000,0.300,699.000,0.500,631.000,1.000,152.000,5.000,0
"03/05/08","23:02:35",32837.000,"cc",28333.885,6.00,6,0.100,25419.000,0.200,4749.000,0.300,1351.000,0.500,1071.000,1.000,247.000,5.000,0
"03/05/08","23:02:41",31226.000,"cc",28385.043,6.00,6,0.100,24173.000,0.200,4518.000,0.300,1221.000,0.500,1042.000,1.000,272.000,5.000,0
"03/05/08","23:02:47",27128.000,"cc",28294.883,6.00,6,0.100,22147.000,0.200,3624.000,0.300,587.000,0.500,634.000,1.000,136.000,5.000,0
"03/05/08","23:02:53",26604.000,"cc",28287.520,6.00,6,0.100,21825.000,0.200,3517.000,0.300,587.000,0.500,532.000,1.000,143.000,5.000,0
"03/05/08","23:02:59",27549.000,"cc",28316.699,6.00,6,0.100,22333.000,0.200,3720.000,0.300,719.000,0.500,637.000,1.000,140.000,5.000,0
"03/05/08","23:03:05",27416.000,"cc",28295.117,6.00,6,0.100,22328.000,0.200,3623.000,0.300,694.000,0.500,617.000,1.000,154.000,5.000,0
"03/05/08","23:03:11",27563.000,"cc",28366.481,6.00,6,0.100,22497.000,0.200,3632.000,0.300,684.000,0.500,596.000,1.000,154.000,5.000,0
"03/05/08","23:03:17",32646.000,"cc",28284.633,6.00,6,0.100,25170.000,0.200,4721.000,0.300,1434.000,0.500,1097.000,1.000,224.000,5.000,0
"03/05/08","23:03:23",27675.000,"cc",28308.188,6.00,6,0.100,22574.000,0.200,3661.000,0.300,617.000,0.500,656.000,1.000,167.000,5.000,0
"03/05/08","23:03:29",26673.000,"cc",28377.514,6.00,6,0.100,22109.000,0.200,3385.000,0.300,554.000,0.500,495.000,1.000,130.000,5.000,0
"03/05/08","23:03:35",26545.000,"cc",28299.623,6.00,6,0.100,22109.000,0.200,3319.000,0.300,491.000,0.500,478.000,1.000,148.000,5.000,0
"03/05/08","23:03:41",28674.000,"cc",28361.600,6.00,6,0.100,22968.000,0.200,3844.000,0.300,919.000,0.500,763.000,1.000,180.000,5.000,0
"03/05/08","23:03:47",26628.000,"cc",28341.930,6.00,6,0.100,21841.000,0.200,3550.000,0.300,545.000,0.500,554.000,1.000,138.000,5.000,0
"03/05/08","23:03:53",29454.000,"cc",28296.582,6.00,6,0.100,23275.000,0.200,4152.000,0.300,976.000,0.500,863.000,1.000,188.000,5.000,0
"03/05/08","23:03:59",26409.000,"cc",28315.547,6.00,6,0.100,21717.000,0.200,3467.000,0.300,594.000,0.500,514.000,1.000,117.000,5.000,0
"03/05/08","23:04:05",26108.000,"cc",28299.879,6.00,6,0.100,21656.000,0.200,3284.000,0.300,509.000,0.500,541.000,1.000,118.000,5.000,0
"03/05/08","23:04:11",25982.000,"cc",28288.229,6.00,6,0.100,21564.000,0.200,3335.000,0.300,483.000,0.500,481.000,1.000,119.000,5.000,0
"03/05/08","23:04:17",29047.000,"cc",28357.578,6.00,6,0.100,23064.000,0.200,3951.000,0.300,968.000,0.500,864.000,1.000,200.000,5.000,0
"03/05/08","23:04:23",26276.000,"cc",28362.885,6.00,6,0.100,21531.000,0.200,3495.000,0.300,575.000,0.500,539.000,1.000,136.000,5.000,0
"03/05/08","23:04:29",27675.000,"cc",28281.729,6.00,6,0.100,22709.000,0.200,3591.000,0.300,662.000,0.500,557.000,1.000,156.000,5.000,0
"03/05/08","23:04:35",29029.000,"cc",28308.393,6.00,6,0.100,23060.000,0.200,3941.000,0.300,1020.000,0.500,810.000,1.000,198.000,5.000,0
"03/05/08","23:04:41",26896.000,"cc",28285.543,6.00,6,0.100,22122.000,0.200,3505.000,0.300,610.000,0.500,553.000,1.000,106.000,5.000,0
"03/05/08","23:04:47",29754.000,"cc",28318.357,6.00,6,0.100,23509.000,0.200,4179.000,0.300,1055.000,0.500,838.000,1.000,173.000,5.000,0
"03/05/08","23:04:53",26482.000,"cc",28357.246,6.00,6,0.100,22036.000,0.200,3294.000,0.300,521.000,0.500,520.000,1.000,111.000,5.000,0
"03/05/08","23:04:59",26688.000,"cc",28272.623,6.00,6,0.100,22149.000,0.200,3406.000,0.300,523.000,0.500,496.000,1.000,114.000,5.000,0
"03/05/08","23:05:05",29894.000,"cc",28310.311,6.00,6,0.100,23683.000,0.200,4140.000,0.300,1045.000,0.500,859.000,1.000,167.000,5.000,0
"03/05/08","23:05:11",27877.000,"cc",28325.992,6.00,6,0.100,22807.000,0.200,3681.000,0.300,639.000,0.500,593.000,1.000,157.000,5.000,0
"03/05/08","23:05:17",26924.000,"cc",28340.273,6.00,6,0.100,22141.000,0.200,3478.000,0.300,613.000,0.500,539.000,1.000,153.000,5.000,0
"03/05/08","23:05:23",28590.000,"cc",28281.143,6.00,6,0.100,23056.000,0.200,3760.000,0.300,855.000,0.500,758.000,1.000,161.000,5.000,0
"03/05/08","23:05:29",27509.000,"cc",28291.522,6.00,6,0.100,22517.000,0.200,3588.000,0.300,649.000,0.500,620.000,1.000,135.000,5.000,0
"03/05/08","23:05:35",30721.000,"cc",28270.309,6.00,6,0.100,24173.000,0.200,4372.000,0.300,1130.000,0.500,859.000,1.000,187.000,5.000,0
"03/05/08","23:05:41",27238.000,"cc",28321.133,6.00,6,0.100,22557.000,0.200,3506.000,0.300,566.000,0.500,488.000,1.000,121.000,5.000,0
"03/05/08","23:05:47",27515.000,"cc",28342.008,6.00,6,0.100,22707.000,0.200,3528.000,0.300,621.000,0.500,540.000,1.000,119.000,5.000,0
"03/05/08","23:05:53",28066.000,"cc",28348.496,6.00,6,0.100,22900.000,0.200,3670.000,0.300,730.000,0.500,643.000,1.000,123.000,5.000,0
"03/05/08","23:05:59",31311.000,"cc",28306.883,6.00,6,0.100,25043.000,0.200,4206.000,0.300,1036.000,0.500,833.000,1.000,193.000,5.000,0
"03/05/08","23:06:05",30593.000,"cc",28330.877,6.00,6,0.100,24444.000,0.200,4219.000,0.300,1002.000,0.500,747.000,1.000,181.000,5.000,0
"03/05/08","23:06:11",30210.000,"cc",28299.941,6.00,6,0.100,24632.000,0.200,4063.000,0.300,733.000,0.500,638.000,1.000,144.000,5.000,0
"03/05/08","23:06:17",34093.000,"cc",28352.037,6.00,6,0.100,26040.000,0.200,5013.000,0.300,1577.000,0.500,1199.000,1.000,264.000,5.000,0
"03/05/08","23:06:23",28775.000,"cc",28396.588,6.00,6,0.100,23198.000,0.200,3840.000,0.300,826.000,0.500,743.000,1.000,168.000,5.000,0
"03/05/08","23:06:29",31745.000,"cc",28195.248,6.00,6,0.100,25374.000,0.200,4333.000,0.300,1027.000,0.500,835.000,1.000,176.000,5.000,0
"03/05/08","23:06:35",33563.000,"cc",28274.041,6.00,6,0.100,25607.000,0.200,4865.000,0.300,1556.000,0.500,1283.000,1.000,252.000,5.000,0
"03/05/08","23:06:41",35177.000,"cc",28336.178,6.00,6,0.100,26587.000,0.200,5288.000,0.300,1671.000,0.500,1338.000,1.000,293.000,5.000,0
"03/05/08","23:06:47",29044.000,"cc",28372.664,6.00,6,0.100,23474.000,0.200,3984.000,0.300,793.000,0.500,631.000,1.000,162.000,5.000,0
"03/05/08","23:06:53",34118.000,"cc",28347.250,6.00,6,0.100,27026.000,0.200,4668.000,0.300,1212.000,0.500,1018.000,1.000,194.000,5.000,0
"03/05/08","23:06:59",38771.000,"cc",28299.809,6.00,6,0.100,29005.000,0.200,5812.000,0.300,2019.000,0.500,1572.000,1.000,363.000,5.000,0
"03/05/08","23:07:05",31579.000,"cc",28321.713,6.00,6,0.100,24697.000,0.200,4342.000,0.300,1196.000,0.500,1092.000,1.000,252.000,5.000,0
"03/05/08","23:07:11",28655.000,"cc",28371.180,6.00,6,0.100,23537.000,0.200,3697.000,0.300,670.000,0.500,607.000,1.000,144.000,5.000,0
"03/05/08","23:07:17",27638.000,"cc",28274.838,6.00,6,0.100,22805.000,0.200,3501.000,0.300,635.000,0.500,577.000,1.000,120.000,5.000,0
"03/05/08","23:07:23",32646.000,"cc",28399.805,6.00,6,0.100,25425.000,0.200,4586.000,0.300,1323.000,0.500,1083.000,1.000,229.000,5.000,0
"03/05/08","23:07:29",32491.000,"cc",28310.768,6.00,6,0.100,25284.000,0.200,4536.000,0.300,1312.000,0.500,1110.000,1.000,249.000,5.000,0
"03/05/08","23:07:35",32617.000,"cc",28231.002,6.00,6,0.100,25966.000,0.200,4385.000,0.300,1141.000,0.500,934.000,1.000,191.000,5.000,0
"03/05/08","23:07:41",39398.000,"cc",28308.193,6.00,6,0.100,31878.000,0.200,5123.000,0.300,1184.000,0.500,956.000,1.000,257.000,5.000,0
"03/05/08","23:07:47",45332.000,"cc",28337.084,6.00,6,0.100,34955.000,0.200,6348.000,0.300,1970.000,0.500,1619.000,1.000,440.000,5.000,0
"03/05/08","23:07:53",36379.000,"cc",28317.672,6.00,6,0.100,27815.000,0.200,5149.000,0.300,1608.000,0.500,1469.000,1.000,338.000,5.000,0
"03/05/08","23:07:59",39008.000,"cc",28330.664,6.00,6,0.100,29204.000,0.200,5741.000,0.300,2018.000,0.500,1647.000,1.000,398.000,5.000,0
"03/05/08","23:08:05",39053.000,"cc",28266.250,6.00,6,0.100,28789.000,0.200,5974.000,0.300,2144.000,0.500,1745.000,1.000,401.000,5.000,0
"03/05/08","23:08:11",35469.000,"cc",28331.190,6.00,6,0.100,27495.000,0.200,5002.000,0.300,1475.000,0.500,1179.000,1.000,318.000,5.000,0
"03/05/08","23:08:17",33032.000,"cc",28317.928,6.00,6,0.100,26095.000,0.200,4502.000,0.300,1175.000,0.500,1005.000,1.000,255.000,5.000,0
"03/05/08","23:08:23",32260.000,"cc",28322.168,6.00,6,0.100,25594.000,0.200,4310.000,0.300,1090.000,0.500,1004.000,1.000,262.000,5.000,0
"03/05/08","23:08:29",34190.000,"cc",28285.613,6.00,6,0.100,27097.000,0.200,4625.000,0.300,1209.000,0.500,990.000,1.000,269.000,5.000,0
"03/05/08","23:08:35",35147.000,"cc",28307.006,6.00,6,0.100,26636.000,0.200,5083.000,0.300,1725.000,0.500,1408.000,1.000,295.000,5.000,0
"03/05/08","23:08:41",30940.000,"cc",28347.066,6.00,6,0.100,24760.000,0.200,4132.000,0.300,1012.000,0.500,844.000,1.000,192.000,5.000,0
"03/05/08","23:08:47",28849.000,"cc",28293.707,6.00,6,0.100,23975.000,0.200,3451.000,0.300,649.000,0.500,626.000,1.000,148.000,5.000,0
"03/05/08","23:08:53",30276.000,"cc",28263.988,6.00,6,0.100,25035.000,0.200,3684.000,0.300,730.000,0.500,670.000,1.000,157.000,5.000,0
"03/05/08","23:08:59",33292.000,"cc",28274.820,6.00,6,0.100,27369.000,0.200,4210.000,0.300,816.000,0.500,728.000,1.000,169.000,5.000,0
"03/05/08","23:09:05",35250.000,"cc",28423.697,6.00,6,0.100,27727.000,0.200,4747.000,0.300,1393.000,0.500,1120.000,1.000,263.000,5.000,0
"03/05/08","23:09:11",34178.000,"cc",28378.660,6.00,6,0.100,26575.000,0.200,4649.000,0.300,1445.000,0.500,1240.000,1.000,269.000,5.000,0
"03/05/08","23:09:17",30318.000,"cc",28291.016,6.00,6,0.100,24618.000,0.200,3839.000,0.300,920.000,0.500,778.000,1.000,163.000,5.000,0
"03/05/08","23:09:23",34349.000,"cc",28321.492,6.00,6,0.100,26345.000,0.200,4912.000,0.300,1530.000,0.500,1275.000,1.000,287.000,5.000,0
"03/05/08","23:09:29",32910.000,"cc",28312.197,6.00,6,0.100,25379.000,0.200,4709.000,0.300,1433.000,0.500,1140.000,1.000,249.000,5.000,0
"03/05/08","23:09:35",36667.000,"cc",28276.785,6.00,6,0.100,27930.000,0.200,5424.000,0.300,1702.000,0.500,1339.000,1.000,272.000,5.000,0
"03/05/08","23:09:41",29308.000,"cc",28291.787,6.00,6,0.100,24069.000,0.200,3766.000,0.300,672.000,0.500,628.000,1.000,173.000,5.000,0
"03/05/08","23:09:47",29661.000,"cc",28305.410,6.00,6,0.100,24673.000,0.200,3725.000,0.300,580.000,0.500,551.000,1.000,132.000,5.000,0
"03/05/08","23:09:53",32598.000,"cc",28398.451,6.00,6,0.100,26238.000,0.200,4285.000,0.300,1011.000,0.500,833.000,1.000,231.000,5.000,0
"03/05/08","23:09:59",35200.000,"cc",28362.721,6.00,6,0.100,26721.000,0.200,5185.000,0.300,1719.000,0.500,1268.000,1.000,307.000,5.000,0
"03/05/08","23:10:05",32024.000,"cc",28237.897,6.00,6,0.100,25245.000,0.200,4461.000,0.300,1157.000,0.500,937.000,1.000,224.000,5.000,0
"03/05/08","23:10:11",31649.000,"cc",28295.750,6.00,6,0.100,25902.000,0.200,4018.000,0.300,783.000,0.500,750.000,1.000,196.000,5.000,0
"03/05/08","23:10:17",36489.000,"cc",28272.705,6.00,6,0.100,27701.000,0.200,5226.000,0.300,1752.000,0.500,1475.000,1.000,335.000,5.000,0
"03/05/08","23:10:23",35852.000,"cc",28305.025,6.00,6,0.100,27821.000,0.200,4976.000,0.300,1530.000,0.500,1229.000,1.000,296.000,5.000,0
"03/05/08","23:10:29",35095.000,"cc",28324.713,6.00,6,0.100,26129.000,0.200,5146.000,0.300,1845.000,0.500,1605.000,1.000,370.000,5.000,0
"03/05/08","23:10:35",29688.000,"cc",28373.715,6.00,6,0.100,24003.000,0.200,3870.000,0.300,854.000,0.500,781.000,1.000,180.000,5.000,0
"03/05/08","23:10:41",38524.000,"cc",28349.477,6.00,6,0.100,28438.000,0.200,6099.000,0.300,2229.000,0.500,1469.000,1.000,289.000,5.000,0
"03/05/08","23:10:47",28878.000,"cc",28326.412,6.00,6,0.100,23787.000,0.200,3609.000,0.300,714.000,0.500,608.000,1.000,160.000,5.000,0
"03/05/08","23:10:53",30007.000,"cc",28322.945,6.00,6,0.100,24111.000,0.200,4062.000,0.300,908.000,0.500,769.000,1.000,157.000,5.000,0
"03/05/08","23:10:59",29602.000,"cc",28276.981,6.00,6,0.100,24514.000,0.200,3749.000,0.300,646.000,0.500,574.000,1.000,119.000,5.000,0
"03/05/08","23:11:05",30870.000,"cc",28384.947,6.00,6,0.100,25068.000,0.200,4049.000,0.300,882.000,0.500,703.000,1.000,168.000,5.000,0
"03/05/08","23:11:11",28175.000,"cc",28268.338,6.00,6,0.100,23287.000,0.200,3564.000,0.300,630.000,0.500,555.000,1.000,139.000,5.000,0
"03/05/08","23:11:17",31312.000,"cc",28295.660,6.00,6,0.100,25843.000,0.200,4010.000,0.300,682.000,0.500,647.000,1.000,130.000,5.000,0
"03/05/08","23:11:23",30760.000,"cc",28328.475,6.00,6,0.100,24500.000,0.200,4143.000,0.300,1029.000,0.500,881.000,1.000,207.000,5.000,0
"03/05/08","23:11:29",29285.000,"cc",28361.322,6.00,6,0.100,23927.000,0.200,3843.000,0.300,752.000,0.500,631.000,1.000,132.000,5.000,0
"03/05/08","23:11:35",28652.000,"cc",28278.959,6.00,6,0.100,23663.000,0.200,3781.000,0.300,585.000,0.500,531.000,1.000,92.000,5.000,0
"03/05/08","23:11:41",32944.000,"cc",28263.438,6.00,6,0.100,25899.000,0.200,4621.000,0.300,1326.000,0.500,899.000,1.000,199.000,5.000,0
"03/05/08","23:11:47",28908.000,"cc",28325.934,6.00,6,0.100,23962.000,0.200,3553.000,0.300,670.000,0.500,587.000,1.000,136.000,5.000,0
"03/05/08","23:11:53",34966.000,"cc",28339.129,6.00,6,0.100,27022.000,0.200,5086.000,0.300,1567.000,0.500,1103.000,1.000,188.000,5.000,0
"03/05/08","23:11:59",30463.000,"cc",28322.104,6.00,6,0.100,24673.000,0.200,4091.000,0.300,889.000,0.500,705.000,1.000,105.000,5.000,0
"03/05/08","23:12:05",30034.000,"cc",28315.615,6.00,6,0.100,24590.000,0.200,3882.000,0.300,817.000,0.500,624.000,1.000,121.000,5.000,0
"03/05/08","23:12:11",32301.000,"cc",28231.529,6.00,6,0.100,25519.000,0.200,4567.000,0.300,1203.000,0.500,865.000,1.000,147.000,5.000,0
"03/05/08","23:12:17",28580.000,"cc",28318.531,6.00,6,0.100,23684.000,0.200,3609.000,0.300,616.000,0.500,541.000,1.000,130.000,5.000,0
"03/05/08","23:12:23",29687.000,"cc",28338.045,6.00,6,0.100,24245.000,0.200,3867.000,0.300,803.000,0.500,665.000,1.000,107.000,5.000,0
"03/05/08","23:12:29",29556.000,"cc",28338.981,6.00,6,0.100,24164.000,0.200,3912.000,0.300,790.000,0.500,607.000,1.000,83.000,5.000,0
"03/05/08","23:12:35",30684.000,"cc",28342.107,6.00,6,0.100,24843.000,0.200,4119.000,0.300,884.000,0.500,709.000,1.000,129.000,5.000,0
"03/05/08","23:12:41",30605.000,"cc",28291.260,6.00,6,0.100,24735.000,0.200,4150.000,0.300,898.000,0.500,717.000,1.000,105.000,5.000,0
"03/05/08","23:12:47",30806.000,"cc",28306.514,6.00,6,0.100,24467.000,0.200,4363.000,0.300,1039.000,0.500,810.000,1.000,127.000,5.000,0
"03/05/08","23:12:53",28583.000,"cc",28270.436,6.00,6,0.100,23603.000,0.200,3701.000,0.300,668.000,0.500,522.000,1.000,89.000,5.000,0
"03/05/08","23:12:59",30532.000,"cc",28383.445,6.00,6,0.100,24616.000,0.200,4110.000,0.300,965.000,0.500,727.000,1.000,114.000,5.000,0
"03/05/08","23:13:05",28308.000,"cc",28286.166,6.00,6,0.100,23464.000,0.200,3629.000,0.300,596.000,0.500,514.000,1.000,105.000,5.000,0
"03/05/08","23:13:11",29027.000,"cc",28236.322,6.00,6,0.100,23808.000,0.200,3842.000,0.300,672.000,0.500,582.000,1.000,123.000,5.000,0
"03/05/08","23:13:17",29763.000,"cc",28283.316,6.00,6,0.100,24106.000,0.200,3941.000,0.300,809.000,0.500,742.000,1.000,165.000,5.000,0
"03/05/08","23:13:23",28623.000,"cc",28361.139,6.00,6,0.100,23617.000,0.200,3731.000,0.300,658.000,0.500,522.000,1.000,95.000,5.000,0
"03/05/08","23:13:29",29008.000,"cc",28396.953,6.00,6,0.100,23864.000,0.200,3680.000,0.300,743.000,0.500,613.000,1.000,108.000,5.000,0
"03/05/08","23:13:35",29905.000,"cc",28369.805,6.00,6,0.100,24321.000,0.200,4047.000,0.300,769.000,0.500,654.000,1.000,114.000,5.000,0
"03/05/08","23:13:41",27899.000,"cc",28314.100,6.00,6,0.100,23301.000,0.200,3474.000,0.300,598.000,0.500,452.000,1.000,74.000,5.000,0
"03/05/08","23:13:47",28671.000,"cc",28290.766,6.00,6,0.100,23693.000,0.200,3734.000,0.300,622.000,0.500,540.000,1.000,82.000,5.000,0
"03/05/08","23:13:53",27270.000,"cc",28203.555,6.00,6,0.100,22622.000,0.200,3518.000,0.300,522.000,0.500,510.000,1.000,98.000,5.000,0
"03/05/08","23:13:59",31296.000,"cc",28366.260,6.00,6,0.100,24869.000,0.200,4388.000,0.300,1087.000,0.500,808.000,1.000,144.000,5.000,0
"03/05/08","23:14:05",33714.000,"cc",28316.004,6.00,6,0.100,25601.000,0.200,5090.000,0.300,1588.000,0.500,1198.000,1.000,237.000,5.000,0
"03/05/08","23:14:11",30970.000,"cc",28316.404,6.00,6,0.100,24354.000,0.200,4432.000,0.300,1134.000,0.500,886.000,1.000,164.000,5.000,0
"03/05/08","23:14:17",28425.000,"cc",28290.229,6.00,6,0.100,23019.000,0.200,3870.000,0.300,784.000,0.500,620.000,1.000,132.000,5.000,0
"03/05/08","23:14:23",27165.000,"cc",28279.596,6.00,6,0.100,22164.000,0.200,3589.000,0.300,676.000,0.500,589.000,1.000,147.000,5.000,0
"03/05/08","23:14:29",32757.000,"cc",28329.770,6.00,6,0.100,25217.000,0.200,4777.000,0.300,1413.000,0.500,1096.000,1.000,254.000,5.000,0
"03/05/08","23:14:35",28282.000,"cc",28344.627,6.00,6,0.100,23227.000,0.200,3639.000,0.300,685.000,0.500,613.000,1.000,118.000,5.000,0
"03/05/08","23:14:41",25933.000,"cc",28367.031,6.00,6,0.100,21510.000,0.200,3304.000,0.300,518.000,0.500,490.000,1.000,111.000,5.000,0
"03/05/08","23:14:47",24712.000,"cc",28272.625,6.00,6,0.100,20500.000,0.200,3140.000,0.300,494.000,0.500,467.000,1.000,111.000,5.000,0
"03/05/08","23:14:53",36338.000,"cc",28290.729,6.00,6,0.100,26896.000,0.200,5751.000,0.300,1976.000,0.500,1409.000,1.000,306.000,5.000,0
"03/05/08","23:14:59",27575.000,"cc",28362.813,6.00,6,0.100,22286.000,0.200,3679.000,0.300,800.000,0.500,669.000,1.000,141.000,5.000,0
"03/05/08","23:15:05",32655.000,"cc",28405.963,6.00,6,0.100,24764.000,0.200,4962.000,0.300,1516.000,0.500,1121.000,1.000,292.000,5.000,0
"03/05/08","23:15:11",26001.000,"cc",28291.756,6.00,6,0.100,21373.000,0.200,3279.000,0.300,618.000,0.500,586.000,1.000,145.000,5.000,0
"03/05/08","23:15:17",27789.000,"cc",28339.947,6.00,6,0.100,22151.000,0.200,3763.000,0.300,896.000,0.500,779.000,1.000,200.000,5.000,0
"03/05/08","23:15:23",25803.000,"cc",28254.229,6.00,6,0.100,21311.000,0.200,3348.000,0.300,536.000,0.500,491.000,1.000,117.000,5.000,0
"03/05/08","23:15:29",26644.000,"cc",28374.242,6.00,6,0.100,21610.000,0.200,3620.000,0.300,683.000,0.500,592.000,1.000,139.000,5.000,0
"03/05/08","23:15:35",27809.000,"cc",28312.920,6.00,6,0.100,22107.000,0.200,3823.000,0.300,887.000,0.500,776.000,1.000,216.000,5.000,0
"03/05/08","23:15:41",29862.000,"cc",28265.176,6.00,6,0.100,23043.000,0.200,4315.000,0.300,1278.000,0.500,965.000,1.000,261.000,5.000,0
"03/05/08","23:15:47",27599.000,"cc",28353.426,6.00,6,0.100,22023.000,0.200,3847.000,0.300,827.000,0.500,723.000,1.000,179.000,5.000,0
"03/05/08","23:15:53",31571.000,"cc",28346.912,6.00,6,0.100,24010.000,0.200,4685.000,0.300,1474.000,0.500,1093.000,1.000,309.000,5.000,0
"03/05/08","23:15:59",25547.000,"cc",28358.678,6.00,6,0.100,21035.000,0.200,3308.000,0.300,560.000,0.500,519.000,1.000,125.000,5.000,0
"03/05/08","23:16:05",27735.000,"cc",28217.670,6.00,6,0.100,22281.000,0.200,3761.000,0.300,815.000,0.500,707.000,1.000,171.000,5.000,0
"03/05/08","23:16:11",27228.000,"cc",28297.225,6.00,6,0.100,22219.000,0.200,3657.000,0.300,641.000,0.500,562.000,1.000,149.000,5.000,0
"03/05/08","23:16:17",27118.000,"cc",28309.947,6.00,6,0.100,21850.000,0.200,3687.000,0.300,759.000,0.500,657.000,1.000,165.000,5.000,0
"03/05/08","23:16:23",28149.000,"cc",28336.475,6.00,6,0.100,22441.000,0.200,3838.000,0.300,848.000,0.500,831.000,1.000,191.000,5.000,0
"03/05/08","23:16:29",25783.000,"cc",28291.566,6.00,6,0.100,20995.000,0.200,3516.000,0.300,625.000,0.500,504.000,1.000,143.000,5.000,0
"03/05/08","23:16:35",25933.000,"cc",28337.797,6.00,6,0.100,21227.000,0.200,3426.000,0.300,605.000,0.500,551.000,1.000,124.000,5.000,0